Wind_Speed
23 7 15 15 17 19 17 26 17 10 12 19 24 28 26 24 22 26 30 30 22 20 18 25 27 31 33 34 36 39 37 34 40 44 44 42 33 24 23 23 22 21 23 27
31 16 17 22 10 10 12 16 21 29 28 29 26 23 24 25 25 24 29 31 28 22 22 25 28 34 36 37 40 41 41 43 44 43 41 37 27 23 23 25 25 25 23 21
39 25 13 21 27 23 21 20 17 15 22 26 25 29 25 25 27 27 30 32 32 29 24 23 28 32 36 37 38 41 42 41 40 37 38 35 33 29 28 26 29 31 27 24
45 36 28 19 18 17 24 26 27 27 28 29 25 30 29 28 30 28 29 33 31 29 30 26 23 28 34 38 40 40 40 40 39 38 39 41 39 33 31 31 27 29 28 27
42 46 36 22 24 26 27 27 31 34 35 33 35 30 30 32 34 34 32 34 34 30 31 31 31 30 29 31 36 40 40 39 41 43 43 38 35 34 32 29 30 29 29 28
34 43 33 24 31 33 32 34 35 37 35 32 29 36 36 35 36 37 38 39 39 34 30 31 33 35 33 34 33 35 36 37 39 39 39 38 36 35 34 34 33 30 30 30
28 30 33 36 39 39 39 41 40 38 36 35 35 37 37 37 38 40 40 43 43 38 33 32 33 34 36 37 37 35 35 34 35 37 38 37 36 36 35 34 34 34 32 30
35 41 37 44 48 46 48 46 40 40 41 38 40 38 37 39 41 42 43 42 42 39 37 35 34 35 36 37 38 39 39 38 36 37 38 38 36 37 39 39 37 36 37 35
44 41 40 42 46 52 56 58 51 47 42 39 40 41 41 41 42 45 46 45 45 41 38 36 37 37 38 38 39 40 40 40 40 39 39 39 40 40 40 41 42 40 41 39
50 61 62 55 47 49 49 52 50 46 45 42 40 42 43 45 47 48 47 49 46 43 41 40 40 38 37 38 39 39 40 41 42 43 44 45 46 46 46 46 47 47 47 46
50 56 57 56 68 57 59 53 47 45 45 43 42 43 45 47 50 51 50 51 46 43 42 42 42 41 41 41 41 40 41 42 43 44 45 46 48 50 51 51 51 51 51 51
54 53 51 51 38 44 44 43 44 45 45 44 44 46 48 48 51 51 52 48 44 43 43 43 44 43 43 43 44 44 44 43 44 45 45 46 47 47 48 50 50 53 54 55
52 50 57 50 54 43 39 43 46 46 45 46 48 49 50 49 51 51 48 46 45 44 44 44 43 44 45 47 47 45 46 46 45 46 48 50 52 54 54 55 56 57 56 55
63 51 40 45 41 51 52 48 50 51 49 51 53 52 50 51 51 49 46 45 44 44 44 44 45 46 46 46 46 47 48 49 49 50 52 55 57 59 61 61 59 53 52 50
47 52 56 58 61 62 59 54 56 56 54 52 53 52 52 53 50 45 44 44 44 44 45 46 47 46 46 48 49 50 51 52 53 55 58 59 61 60 58 52 47 43 43 45
56 59 62 65 64 61 58 55 54 58 54 48 50 52 50 46 45 43 43 44 45 45 46 47 47 48 49 51 51 52 53 55 58 60 61 62 59 55 49 47 46 46 48 48
56 57 57 60 59 58 55 49 45 45 48 49 45 43 43 42 42 42 43 44 45 45 47 48 49 51 51 52 53 55 57 59 62 63 61 58 54 52 50 48 48 47 47 48
48 49 47 48 47 44 43 41 42 42 41 41 40 39 39 39 41 41 43 44 46 47 49 50 50 51 52 54 57 60 62 63 61 60 60 60 56 52 51 50 51 50 48 46
46 44 41 40 40 41 42 41 39 39 37 37 38 38 38 38 41 41 44 45 46 47 48 49 49 53 56 59 62 61 59 60 61 60 59 56 54 53 53 53 54 53 47 43
36 35 33 36 39 39 37 35 34 34 35 35 35 36 38 39 41 43 43 44 45 45 47 48 51 56 58 57 59 61 60 56 55 52 51 52 53 54 57 59 58 56 50 47
28 28 29 30 31 32 31 31 32 32 33 34 36 37 39 40 40 41 40 41 44 46 47 49 52 51 57 58 51 45 45 48 52 53 48 44 42 43 44 44 46 50 49 47
24 25 24 25 26 27 28 29 30 30 32 34 35 36 37 38 39 39 41 41 43 44 46 49 48 48 41 41 44 46 43 38 34 33 35 35 34 32 34 32 27 25 27 38
20 18 21 23 23 24 24 24 26 26 29 32 35 36 37 37 38 37 38 40 43 43 43 42 40 37 41 44 41 29 20 25 27 28 30 29 27 23 21 23 24 22 21 20
21 23 25 26 25 20 19 23 26 29 31 33 34 36 37 38 40 40 39 39 38 36 36 34 32 35 41 35 20 14 22 21 23 20 22 25 23 14 11 9 8 9 12 15
11 11 13 17 19 21 23 26 28 31 32 34 34 34 35 33 31 32 29 29 28 29 25 25 28 31 34 25 8 14 18 12 19 18 19 24 27 27 18 12 11 14 16 13
14 20 21 21 21 23 25 28 28 26 26 27 26 24 23 22 22 20 21 22 22 18 15 22 20 22 20 14 6 6 11 13 16 19 19 16 17 18 19 22 17 17 16 15
17 18 20 21 22 24 25 24 25 24 23 22 24 26 24 24 19 18 19 15 11 10 12 13 12 19 10 3 4 8 9 11 13 14 17 19 19 21 19 18 18 16 15 14
Wind_Direction
191 198 245 259 267 243 227 197 200 203 231 245 264 289 309 321 328 326 332 327 326 321 293 282 282 281 281 282 285 290 294 295 299 303 306 311 313 314 312 315 320 311 326 328
190 179 208 241 225 241 247 248 224 222 242 255 270 284 296 314 326 330 330 323 317 314 293 285 276 273 277 277 280 285 289 290 293 297 301 307 305 314 318 311 306 313 317 314
193 183 192 237 229 232 236 243 245 257 270 274 281 290 302 311 319 330 327 323 310 309 305 297 283 277 277 278 279 282 285 289 294 297 300 305 306 306 309 307 305 302 304 304
210 197 212 225 250 251 240 237 244 243 244 262 284 290 304 311 318 324 322 323 316 306 304 305 286 281 282 280 279 280 284 288 292 295 299 303 304 302 295 298 298 292 295 295
220 215 216 232 232 238 235 235 238 249 258 270 278 288 297 308 313 320 320 320 321 307 304 303 300 296 292 286 284 280 280 286 288 291 292 291 293 294 292 292 297 293 292 292
230 229 217 226 231 240 245 248 245 254 259 266 268 286 292 301 308 315 319 317 320 314 301 297 297 296 293 292 287 287 286 286 284 283 286 290 291 290 289 289 288 289 290 289
216 233 236 226 232 233 239 241 249 261 270 277 281 283 291 298 304 311 313 312 317 310 300 295 293 291 291 293 290 285 282 282 282 282 285 285 287 287 286 285 287 287 286 285
222 222 228 239 236 238 242 246 251 257 267 274 279 281 286 292 299 304 306 310 310 301 297 295 293 291 288 288 286 285 285 284 282 281 282 283 284 284 286 287 285 285 286 285
228 228 227 230 236 240 244 251 257 260 271 276 279 281 284 288 294 301 305 305 306 299 293 291 291 291 288 285 284 283 283 284 285 284 284 283 283 283 283 284 285 284 283 280
233 228 227 231 233 239 245 255 262 271 271 275 279 282 287 291 296 300 301 304 302 296 294 292 293 291 287 284 282 280 280 281 282 284 285 286 286 286 285 284 283 282 281 280
236 241 240 251 239 242 253 264 265 268 272 275 276 281 287 292 296 298 301 302 298 294 292 293 293 291 289 287 285 283 281 280 280 279 279 279 280 282 283 283 282 280 279 278
251 241 246 258 257 247 252 263 266 267 271 276 281 283 286 291 293 296 298 297 292 289 290 291 290 290 289 288 286 284 282 282 282 283 283 283 281 280 281 281 281 280 279 277
247 250 262 257 255 263 272 269 267 267 271 274 277 281 286 288 291 295 294 289 288 289 289 289 288 288 287 285 285 286 287 287 287 286 285 285 285 284 283 281 280 277 274 273
259 244 246 247 268 282 277 274 274 276 282 282 282 284 287 291 291 288 286 286 286 287 287 287 286 285 285 284 284 285 286 286 285 285 286 287 287 287 286 284 280 273 270 268
260 272 269 268 271 275 279 280 280 280 281 282 285 288 287 288 289 287 286 286 287 287 287 287 287 286 285 286 286 285 284 284 286 288 290 289 288 287 286 281 277 275 269 267
256 260 261 265 268 271 271 273 275 277 280 278 277 280 281 280 281 283 285 285 285 287 287 287 288 288 287 286 285 285 286 288 289 289 289 288 287 284 278 277 276 276 273 268
247 249 256 262 266 268 270 271 269 269 269 271 273 274 276 279 282 283 284 285 287 288 288 289 289 289 289 289 288 288 289 289 289 289 288 287 285 279 276 274 275 278 274 270
252 251 253 257 261 266 271 268 265 268 270 272 274 275 277 279 280 282 284 286 287 289 290 291 291 292 291 291 292 292 291 290 289 288 288 287 284 278 274 273 274 280 279 273
258 259 259 258 261 265 267 268 268 269 270 271 274 276 277 279 281 283 285 287 288 290 291 293 294 293 293 293 292 292 293 293 292 291 287 283 281 278 276 274 275 277 275 271
257 259 259 257 262 265 267 267 268 270 271 272 274 276 278 281 283 285 287 289 291 292 293 294 294 296 296 296 296 296 294 293 293 291 290 288 284 279 276 275 273 271 266 261
261 260 254 254 259 263 267 269 270 271 274 275 276 279 281 282 284 287 289 291 291 293 295 298 298 300 303 303 302 300 300 300 296 296 294 290 287 283 279 274 268 263 260 255
254 259 259 260 261 263 265 267 271 274 276 277 279 281 284 287 288 290 291 291 292 295 297 300 303 306 308 307 308 308 303 304 308 312 308 302 294 285 282 272 266 267 259 251
242 257 264 264 265 268 271 274 276 281 283 283 284 287 289 289 289 290 290 291 294 296 300 304 306 309 311 310 315 317 330 326 325 329 327 321 310 299 292 274 266 266 256 266
281 278 271 272 271 274 286 289 287 286 288 290 291 291 289 290 289 288 287 289 292 294 301 305 307 313 308 318 329 336 331 341 348 347 353 4 359 334 303 287 284 240 255 251
277 296 309 304 296 293 293 295 295 296 297 297 296 294 293 290 288 287 286 285 289 301 304 312 319 322 310 324 321 321 340 353 349 6 28 36 39 41 49 69 98 102 99 106
304 302 300 297 297 299 301 303 303 304 301 299 300 300 299 296 293 294 294 297 298 295 311 320 321 334 305 311 291 4 3 25 36 38 43 40 43 49 47 59 83 92 80 97
309 304 299 297 298 303 310 308 305 304 306 308 308 299 295 291 291 288 291 293 290 310 320 326 351 24 49 110 11 68 46 24 42 45 49 52 55 61 64 66 72 80 88 96
Height
5946 5947 5950 5951 5951 5950 5953 5954 5955 5952 5950 5950 5949 5951 5951 5952 5949 5944 5942 5938 5937 5938 5936 5934 5934 5934 5934 5934 5933 5931 5931 5929 5927 5925 5922 5920 5918 5916 5916 5915 5913 5910 5906 5903
5940 5943 5948 5946 5947 5946 5947 5948 5950 5951 5948 5944 5946 5948 5949 5948 5945 5944 5939 5933 5932 5932 5929 5928 5929 5927 5927 5927 5926 5923 5923 5923 5921 5919 5916 5915 5913 5911 5909 5907 5907 5904 5903 5902
5934 5937 5940 5942 5943 5943 5944 5945 5945 5945 5942 5940 5940 5939 5942 5943 5942 5939 5935 5931 5926 5925 5925 5923 5920 5919 5918 5918 5918 5917 5916 5915 5913 5912 5909 5910 5908 5907 5905 5902 5900 5899 5898 5897
5927 5929 5930 5935 5935 5937 5938 5938 5939 5938 5936 5934 5934 5932 5934 5935 5936 5936 5932 5927 5922 5920 5916 5916 5917 5914 5911 5909 5907 5908 5907 5907 5906 5904 5902 5900 5900 5900 5899 5898 5895 5892 5891 5889
5918 5922 5925 5928 5928 5928 5929 5932 5930 5930 5931 5931 5927 5927 5929 5929 5928 5927 5925 5921 5917 5914 5910 5907 5905 5905 5905 5902 5899 5898 5898 5898 5897 5895 5894 5892 5891 5891 5891 5890 5889 5888 5886 5885
5913 5914 5917 5920 5918 5919 5922 5920 5921 5922 5924 5926 5927 5919 5921 5922 5920 5918 5915 5912 5909 5908 5905 5901 5897 5894 5894 5893 5892 5889 5889 5888 5886 5886 5884 5883 5882 5881 5881 5881 5880 5880 5879 5878
5902 5906 5910 5908 5908 5910 5912 5913 5911 5913 5916 5917 5917 5914 5912 5912 5912 5910 5907 5903 5901 5898 5897 5894 5890 5888 5885 5882 5880 5880 5879 5879 5877 5876 5875 5875 5873 5872 5871 5872 5870 5870 5871 5871
5897 5897 5898 5897 5902 5902 5902 5902 5905 5907 5906 5907 5907 5906 5905 5903 5901 5901 5899 5897 5892 5888 5886 5884 5882 5880 5877 5874 5872 5870 5868 5868 5868 5867 5865 5864 5863 5863 5860 5859 5860 5861 5860 5860
5886 5889 5886 5888 5890 5890 5892 5894 5898 5899 5899 5898 5895 5895 5895 5895 5893 5890 5887 5886 5883 5879 5876 5874 5872 5869 5867 5865 5862 5860 5859 5858 5856 5856 5855 5853 5852 5851 5850 5849 5847 5848 5847 5848
5873 5867 5867 5870 5878 5880 5883 5885 5887 5888 5888 5889 5887 5883 5884 5881 5880 5879 5877 5872 5869 5866 5864 5862 5860 5858 5857 5855 5852 5851 5849 5847 5846 5844 5841 5839 5838 5837 5836 5835 5834 5833 5833 5833
5858 5858 5862 5863 5863 5869 5876 5879 5879 5878 5877 5878 5878 5876 5873 5871 5868 5866 5863 5860 5857 5854 5851 5849 5847 5845 5843 5842 5839 5838 5836 5835 5833 5832 5830 5829 5826 5822 5820 5820 5818 5817 5816 5815
5847 5846 5848 5847 5852 5862 5865 5868 5869 5867 5866 5865 5866 5864 5863 5861 5858 5855 5851 5848 5846 5842 5839 5837 5834 5833 5830 5828 5825 5823 5822 5820 5818 5816 5814 5812 5810 5810 5807 5804 5801 5799 5797 5797
5834 5841 5841 5840 5843 5852 5857 5857 5857 5857 5856 5855 5854 5853 5852 5850 5846 5843 5839 5836 5833 5830 5828 5826 5823 5821 5817 5813 5810 5808 5806 5805 5803 5800 5797 5794 5792 5790 5789 5787 5784 5782 5780 5778
5830 5830 5834 5833 5834 5839 5843 5844 5843 5843 5841 5840 5839 5839 5839 5836 5832 5829 5826 5824 5821 5819 5816 5813 5810 5808 5805 5801 5798 5796 5792 5789 5786 5784 5781 5778 5774 5771 5767 5765 5763 5763 5761 5760
5818 5816 5821 5824 5825 5825 5827 5826 5826 5827 5827 5827 5827 5825 5822 5820 5818 5815 5813 5810 5808 5805 5803 5799 5797 5794 5790 5788 5784 5781 5777 5774 5770 5767 5763 5759 5754 5750 5747 5745 5744 5744 5745 5745
5814 5811 5813 5810 5810 5811 5814 5815 5813 5813 5815 5814 5812 5810 5809 5807 5805 5803 5801 5799 5795 5793 5789 5785 5783 5779 5776 5773 5768 5765 5762 5758 5754 5749 5744 5739 5735 5731 5729 5728 5728 5727 5727 5728
5801 5800 5800 5799 5799 5798 5800 5801 5803 5800 5798 5797 5798 5798 5796 5795 5793 5791 5789 5786 5783 5780 5776 5772 5769 5765 5761 5756 5752 5749 5745 5740 5734 5729 5723 5719 5715 5712 5711 5710 5710 5710 5709 5709
5781 5782 5786 5788 5788 5788 5788 5787 5787 5787 5787 5786 5786 5786 5785 5784 5781 5780 5776 5774 5770 5767 5762 5758 5755 5751 5745 5739 5735 5729 5723 5717 5711 5706 5702 5698 5695 5692 5691 5690 5690 5691 5691 5691
5769 5771 5774 5778 5778 5777 5776 5777 5777 5776 5776 5776 5776 5775 5773 5772 5769 5767 5764 5761 5757 5754 5749 5745 5740 5733 5728 5723 5715 5708 5702 5696 5690 5685 5679 5675 5672 5672 5670 5670 5669 5671 5672 5674
5759 5762 5765 5766 5767 5767 5767 5766 5766 5766 5766 5766 5765 5764 5762 5760 5758 5754 5751 5748 5744 5740 5736 5732 5726 5719 5712 5704 5697 5690 5683 5676 5670 5664 5659 5654 5651 5649 5647 5646 5646 5646 5650 5655
5753 5753 5755 5756 5757 5757 5757 5757 5757 5757 5757 5756 5754 5753 5751 5749 5746 5743 5740 5736 5731 5727 5722 5718 5712 5705 5697 5688 5680 5673 5667 5661 5654 5647 5640 5634 5629 5626 5623 5622 5622 5623 5628 5633
5745 5747 5749 5748 5749 5749 5749 5749 5749 5748 5747 5745 5743 5741 5740 5737 5734 5731 5727 5724 5719 5716 5711 5705 5699 5692 5685 5676 5669 5662 5655 5647 5640 5633 5627 5620 5615 5611 5609 5608 5609 5610 5612 5616
5742 5741 5742 5742 5742 5742 5741 5741 5739 5739 5737 5736 5733 5730 5728 5725 5722 5720 5716 5712 5708 5705 5700 5695 5689 5683 5674 5667 5660 5651 5646 5641 5634 5628 5620 5612 5604 5600 5598 5597 5599 5602 5604 5605
5735 5736 5736 5736 5735 5734 5733 5732 5731 5729 5727 5724 5722 5719 5716 5713 5709 5707 5706 5702 5699 5696 5692 5687 5682 5674 5665 5659 5653 5649 5644 5639 5633 5627 5620 5610 5601 5596 5594 5594 5594 5596 5599 5600
5734 5733 5732 5731 5729 5728 5727 5724 5722 5719 5717 5714 5711 5708 5704 5702 5700 5696 5694 5692 5690 5688 5685 5681 5675 5667 5656 5653 5651 5647 5644 5638 5633 5627 5621 5616 5609 5603 5598 5596 5596 5597 5599 5600
5728 5727 5726 5724 5723 5721 5718 5716 5713 5711 5708 5704 5701 5698 5696 5693 5691 5689 5687 5686 5684 5681 5680 5677 5672 5664 5654 5649 5647 5646 5643 5640 5635 5630 5626 5622 5618 5615 5611 5609 5607 5607 5608 5609
5721 5721 5720 5719 5717 5715 5712 5710 5706 5703 5699 5696 5693 5690 5688 5686 5686 5683 5681 5681 5679 5678 5676 5674 5670 5663 5652 5646 5645 5644 5644 5641 5637 5635 5632 5628 5625 5622 5620 5618 5617 5616 5615 5617